[[{"header":{"parameterUnit":"m.s-1","parameterCategory":1,"la1":30.2991,"la2":30.254,"lo1":-89.0895,"lo2":-89.0444,"dy":0.0017,"dx":0.0017,"nx":28,"ny":28,"refTime":"2023-09-04T03:00:00:Z","depth":0,"parameterNumber":2,"parameterNumberName":"U-component_of_WINDS"},"data":[0,0,0,0,0,0,0,0,0,0,0,0,0,0,0,0,0,0,0,0,0,0,0,0,0,0,0,0,0,0,0,0,0,0,0,0,0,0,0,0,0,0,0,0,0,0,0,0,0,0,0,0,0,0,0,0,0,0,-3.0476,-3.0477,0,-3.0558,-3.0559,-3.0559,-3.0541,-3.0539,-3.0538,-3.0536,-3.062,-3.0623,-3.0627,0,0,0,0,0,0,0,0,0,0,0,0,0,-3.0303,-3.0306,-3.0476,-3.0477,-3.0478,-3.0557,-3.0559,-3.056,-3.0541,-3.0539,-3.0538,-3.0536,-3.0619,-3.0623,-3.0627,0,0,0,0,0,0,0,0,0,0,0,0,0,-3.0381,-3.0307,-3.0476,-3.0478,-3.0479,-3.0557,-3.0559,-3.056,-3.0542,-3.0539,-3.0537,-3.0535,-3.0617,-3.0623,-3.0628,-3.0708,0,0,-3.0645,-3.0647,0,0,0,0,0,0,0,0,-3.0376,-3.0387,-3.0477,-3.0478,-3.0479,-3.0537,-3.0528,-3.061,-3.0542,-3.0518,-3.0536,-3.0534,-3.0594,-3.0601,-3.0622,-3.0712,-3.0716,-3.0645,-3.0649,-3.0651,-3.0653,0,0,0,0,0,0,0,-3.0371,-3.0383,-3.0508,-3.0478,-3.048,-3.0475,-3.0484,-3.0543,-3.0568,-3.052,-3.0519,-3.0529,-3.0594,-3.0617,-3.0624,-3.0717,-3.0645,-3.065,-3.0653,-3.0656,-3.0876,-3.0878,0,0,0,0,0,0,-3.0364,-3.0379,-3.0505,-3.0511,-3.0421,-3.048,-3.049,-3.0521,-3.0567,-3.0572,-3.0531,-3.0528,-3.0608,-3.0617,-3.0626,-3.0722,-3.0651,-3.0656,-3.0659,-3.0873,-3.0876,-3.0879,0,0,0,0,0,0,-3.0361,-3.0376,-3.0502,-3.0444,-3.046,-3.0485,-3.0521,-3.0524,-3.0546,-3.0575,-3.058,-3.0549,-3.0607,-3.0619,-3.0688,-3.0725,-3.0659,-3.0664,-3.087,-3.0874,-3.0878,-3.0915,0,0,0,0,0,0,-3.0356,-3.0375,-3.0406,-3.0445,-3.0463,-3.0563,-3.0523,-3.0527,-3.0555,-3.0552,-3.0594,-3.0598,-3.0606,-3.068,-3.0693,-3.0731,-3.0668,-3.0867,-3.0872,-3.0877,-3.0911,-3.092,-3.0928,0,0,0,0,0,-3.035,-3.0413,-3.0407,-3.0423,-3.0503,-3.0565,-3.0575,-3.0583,-3.0558,-3.0589,-3.0608,-3.0597,-3.0719,-3.0687,-3.0702,-3.0742,-3.0865,-3.0871,-3.0876,-3.0907,-3.0918,-3.0927,0,0,0,0,0,0,-3.0377,-3.0418,-3.0412,-3.0491,-3.0524,-3.0561,-3.0601,-3.0594,-3.0636,-3.0631,-3.0638,-3.0648,-3.0718,-3.0737,-3.0701,-3.0822,-3.0788,-3.0797,-3.0806,-3.0817,-3.0825,-3.0819,-3.0672,0,0,0,0,0,-3.0393,-3.044,-3.0473,-3.0539,-3.0556,-3.0576,-3.0603,-3.0606,-3.0641,-3.0655,-3.0679,-3.0714,-3.0759,-3.079,-3.0834,-3.0914,-3.0922,-3.0949,-3.0957,-3.0964,-3.0971,-3.1014,-3.1025,-3.0898,-3.0898,-3.0898,0,0,-3.0425,-3.0453,-3.0482,-3.0545,-3.0571,-3.0619,-3.0588,-3.064,-3.0676,-3.0663,-3.0729,-3.0748,-3.0787,-3.0862,-3.0896,-3.088,-3.1008,-3.0971,-3.0976,-3.098,-3.1021,-3.1033,-3.1043,-3.0902,-3.0901,-3.0901,0,0,-3.0507,-3.0534,-3.0591,-3.0618,-3.0658,-3.067,-3.0684,-3.0722,-3.0734,-3.0801,-3.0792,-3.0834,-3.0914,-3.0941,-3.0966,-3.1058,-3.1048,-3.1072,-3.1115,-3.1156,-3.1166,-3.1175,-3.1207,-3.1218,-3.1079,-3.1079,-3.1079,0,-3.0541,-3.0614,-3.0621,-3.0674,-3.0701,-3.0692,-3.0749,-3.0775,-3.0828,-3.0847,-3.0828,-3.0927,-3.0952,-3.1032,-3.1055,-3.1075,-3.109,-3.1066,-3.1165,-3.1174,-3.1182,-3.1212,-3.1224,-3.1082,-3.1082,-3.1081,-3.1081,0,-3.0653,-3.0703,-3.0745,-3.0795,-3.0827,-3.0882,-3.0897,-3.0929,-3.0929,-3.0943,-3.1011,-3.1041,-3.109,-3.111,-3.1111,-3.119,-3.1179,-3.1163,-3.1129,-3.1196,-3.1225,-3.1236,-3.1085,-3.1085,-3.1084,-3.1083,0,0,-3.0755,-3.0808,-3.0823,-3.0845,-3.0889,-3.0928,-3.0982,-3.103,-3.1056,-3.1093,-3.1138,-3.1205,-3.119,-3.1217,-3.1221,-3.1258,-3.1327,-3.1237,-3.1238,-3.1251,-3.1414,-3.1425,-3.1438,-3.1321,-3.1323,-3.1325,-3.141,0,-3.084,-3.0936,-3.0943,-3.1029,-3.1075,-3.1066,-3.1113,-3.1144,-3.1159,-3.12,-3.1216,-3.1263,-3.124,-3.1257,-3.1292,-3.1311,-3.1359,-3.1305,-3.1362,-3.1364,-3.1351,-3.1453,-3.1465,-3.1544,-3.1421,-3.1423,-3.1425,0,-3.0953,-3.0992,-3.1082,-3.1117,-3.1137,-3.1179,-3.1223,-3.1262,-3.1297,-3.1305,-3.1336,-3.1335,-3.139,-3.1355,-3.143,-3.1393,-3.1417,-3.1429,-3.1432,-3.1437,-3.1397,-3.1459,-3.1569,-3.1581,-3.1442,-3.1441,-3.144,0,-3.1016,-3.1091,-3.1155,-3.1174,-3.1218,-3.1247,-3.1267,-3.13,-3.1328,-3.1366,-3.1384,-3.1429,-3.1453,-3.1487,-3.1498,-3.1472,-3.1572,-3.1539,-3.1579,-3.1579,-3.16,-3.1598,-3.1714,-3.1618,-3.1618,-3.1618,-3.1617,0,-3.111,-3.1165,-3.1183,-3.1222,-3.1283,-3.1291,-3.1352,-3.1369,-3.1399,-3.144,-3.1436,-3.1475,-3.1487,-3.1528,-3.1537,-3.1597,-3.1608,-3.1616,-3.1617,-3.1615,-3.1614,-3.163,-3.1624,-3.1621,-3.162,-3.1619,-3.1619,0,-3.1191,-3.1206,-3.1274,-3.1309,-3.1319,-3.1362,-3.1392,-3.1429,-3.1443,-3.1496,-3.1509,-3.153,-3.1578,-3.1592,-3.1651,-3.1656,-3.1726,-3.1723,-3.1714,-3.1714,-3.1753,-3.1749,-3.1883,-3.19,-3.1793,-3.1794,-3.1795,0,-3.1249,-3.1291,-3.133,-3.1358,-3.1378,-3.1423,-3.1451,-3.146,-3.149,-3.1532,-3.1564,-3.1611,-3.165,-3.1727,-3.1747,-3.1791,-3.1789,-3.1832,-3.1795,-3.1792,-3.1788,-3.1784,-3.1788,-3.1839,-3.184,-3.1841,-3.1842,0,-3.135,-3.1355,-3.1396,-3.1439,-3.1473,-3.1507,-3.1541,-3.1563,-3.1577,-3.1611,-3.1659,-3.1689,-3.1748,-3.1794,-3.1839,-3.1858,-3.1852,-3.1854,-3.1865,-3.1863,-3.1855,-3.1859,-3.1732,-3.185,-3.1849,-3.1849,-3.1848,-3.1848,-3.1421,-3.1457,-3.149,-3.1535,-3.1561,-3.1592,-3.1628,-3.1646,-3.1687,-3.1735,-3.1738,-3.179,-3.1823,-3.1882,-3.1904,-3.1945,-3.1932,-3.1949,-3.1953,-3.1957,-3.196,-3.185,-3.1953,-3.1953,-3.1953,-3.1953,-3.1953,0,-3.152,-3.1541,-3.1583,-3.1629,-3.1664,-3.1655,-3.1691,-3.1721,-3.1767,-3.1799,-3.1836,-3.1891,-3.1936,-3.196,-3.2005,-3.2033,-3.2031,-3.2044,-3.2042,-3.2046,-3.1969,-3.1954,-3.2045,-3.2045,-3.2045,-3.2045,-3.2045,-3.2045,-3.1577,-3.1637,-3.1646,-3.1718,-3.1738,-3.1789,-3.1811,-3.1839,-3.1863,-3.1925,-3.1962,-3.1978,-3.2006,-3.2052,-3.2093,-3.2099,-3.2115,-3.2129,-3.2133,-3.2061,-3.2051,-3.2042,-3.2028,-3.2133,-3.2133,-3.2206,-3.2207,-3.2207]},{"header":{"parameterUnit":"m.s-1","parameterCategory":1,"la1":30.2991,"la2":30.254,"lo1":-89.0895,"lo2":-89.0444,"dy":0.0017,"dx":0.0017,"nx":28,"ny":28,"refTime":"2023-09-04T03:00:00:Z","depth":0,"parameterNumber":3,"parameterNumberName":"V-component_of_WINDS"},"data":[0,0,0,0,0,0,0,0,0,0,0,0,0,0,0,0,0,0,0,0,0,0,0,0,0,0,0,0,0,0,0,0,0,0,0,0,0,0,0,0,0,0,0,0,0,0,0,0,0,0,0,0,0,0,0,0,0,0,3.8859,3.886,0,3.8888,3.8889,3.8889,3.8825,3.8823,3.8821,3.8819,3.8846,3.8849,3.8851,0,0,0,0,0,0,0,0,0,0,0,0,0,3.8745,3.8748,3.8859,3.886,3.886,3.8888,3.8889,3.8889,3.8825,3.8823,3.882,3.8818,3.8845,3.8848,3.8852,0,0,0,0,0,0,0,0,0,0,0,0,0,3.8787,3.8749,3.8859,3.8832,3.883,3.8888,3.8889,3.8889,3.8826,3.8823,3.882,3.8817,3.8844,3.8848,3.8852,3.8938,0,0,3.8864,3.8866,0,0,0,0,0,0,0,0,3.8784,3.8791,3.8835,3.8834,3.8831,3.885,3.8858,3.8905,3.8827,3.8827,3.8819,3.8815,3.885,3.8853,3.8865,3.8939,3.894,3.8864,3.8867,3.8868,3.887,0,0,0,0,0,0,0,3.8782,3.8789,3.8871,3.8836,3.8834,3.8817,3.8819,3.8867,3.8855,3.8827,3.8822,3.8827,3.8848,3.8861,3.8865,3.8941,3.8864,3.8868,3.887,3.8872,3.9084,3.9087,0,0,0,0,0,0,3.8783,3.8787,3.887,3.8872,3.88,3.8821,3.8824,3.8847,3.8855,3.8853,3.8829,3.8824,3.8856,3.8861,3.8866,3.8964,3.8868,3.8872,3.8874,3.908,3.9084,3.9088,0,0,0,0,0,0,3.8781,3.8791,3.8869,3.8828,3.8837,3.8827,3.8853,3.8849,3.8863,3.8857,3.8854,3.8846,3.8854,3.886,3.892,3.8964,3.8874,3.8878,3.9076,3.9082,3.9086,3.9164,0,0,0,0,0,0,3.8778,3.879,3.8824,3.883,3.8839,3.8923,3.8856,3.8852,3.887,3.8863,3.8871,3.8869,3.8852,3.8914,3.8924,3.8968,3.8881,3.9072,3.9079,3.9084,3.9157,3.9171,3.9182,0,0,0,0,0,3.8774,3.8845,3.8826,3.8836,3.8881,3.8926,3.8931,3.8911,3.8874,3.8906,3.8902,3.8869,3.8959,3.8921,3.8931,3.8977,3.9069,3.9077,3.9084,3.9151,3.9168,3.9182,0,0,0,0,0,0,3.8844,3.8845,3.8824,3.8899,3.8913,3.8915,3.8956,3.893,3.8954,3.8946,3.8919,3.8921,3.8985,3.8988,3.8946,3.906,3.9008,3.9017,3.9055,3.9071,3.9083,3.908,3.8884,0,0,0,0,0,3.8868,3.8905,3.8904,3.897,3.8978,3.8966,3.8985,3.8968,3.8981,3.8986,3.8987,3.9,3.903,3.9051,3.908,3.9158,3.9157,3.9195,3.9207,3.9218,3.9225,3.9264,3.928,3.9112,3.9112,3.9112,0,0,3.8918,3.8923,3.8949,3.8984,3.8993,3.9031,3.8971,3.9015,3.9042,3.8993,3.9048,3.9049,3.9062,3.913,3.9161,3.9134,3.9272,3.9227,3.9235,3.9237,3.9273,3.9289,3.9304,3.9117,3.9116,3.9115,0,0,3.9028,3.9037,3.9092,3.9102,3.9116,3.9107,3.9121,3.9127,3.9125,3.9181,3.9144,3.9176,3.9231,3.924,3.9253,3.9366,3.9335,3.9376,3.9441,3.9479,3.9492,3.9504,3.9541,3.9555,3.9384,3.9385,3.9385,0,3.9088,3.9144,3.9123,3.9168,3.9184,3.9142,3.9196,3.9207,3.923,3.9241,3.9212,3.9278,3.9284,3.9352,3.938,3.9392,3.9405,3.9374,3.9492,3.9504,3.9514,3.9549,3.9564,3.9389,3.9389,3.9388,3.9388,0,3.9216,3.9256,3.9298,3.9321,3.9342,3.9391,3.9376,3.94,3.9381,3.9375,3.9431,3.9437,3.9464,3.948,3.9463,3.9546,3.9529,3.9497,3.9443,3.9535,3.9567,3.9581,3.9396,3.9394,3.9393,3.9392,0,0,3.937,3.938,3.9395,3.9404,3.9416,3.9446,3.9493,3.952,3.954,3.9557,3.9594,3.9641,3.9611,3.9625,3.9608,3.9642,3.9727,3.9605,3.9604,3.9625,3.9817,3.9839,3.9855,3.9709,3.9711,3.9713,3.9814,0,3.9476,3.9557,3.9539,3.9618,3.9652,3.9613,3.9654,3.9665,3.9661,3.9689,3.9684,3.9716,3.9675,3.9683,3.9715,3.971,3.9765,3.9703,3.974,3.9742,3.9735,3.9872,3.9896,3.9992,3.9827,3.983,3.9831,0,3.9611,3.9632,3.9715,3.972,3.9734,3.9771,3.9793,3.9821,3.9833,3.9827,3.9843,3.9819,3.9863,3.9812,3.9872,3.983,3.9845,3.9845,3.9848,3.9848,3.979,3.9873,4.0022,4.0035,3.9852,3.985,3.9849,0,3.971,3.9761,3.9816,3.9825,3.9833,3.9859,3.9864,3.9872,3.9889,3.9909,3.9919,3.9945,3.9958,3.9977,3.996,3.9925,4.0022,3.9969,4.0016,4.0016,4.0036,4.0034,4.0186,4.0051,4.005,4.005,4.005,0,3.9829,3.988,3.986,3.9894,3.995,3.9928,3.9983,3.9983,3.9991,4.0023,3.9991,4.0022,3.9999,4.0027,4.0014,4.0064,4.0071,4.0066,4.0062,4.0067,4.0068,4.0074,4.0066,4.0054,4.0053,4.0052,4.0052,0,3.9949,3.9938,3.9995,3.9998,4.0,4.004,4.0042,4.0072,4.0066,4.0106,4.0115,4.0104,4.0135,4.0121,4.0154,4.0146,4.0209,4.0197,4.0205,4.0201,4.0247,4.0242,4.0405,4.0425,4.028,4.0282,4.0283,0,4.0024,4.0062,4.0069,4.0088,4.0095,4.0127,4.0143,4.0124,4.0142,4.0158,4.0186,4.0215,4.0236,4.0288,4.0282,4.0307,4.0293,4.0349,4.0297,4.0301,4.029,4.0287,4.029,4.0359,4.036,4.0362,4.0363,0,4.0157,4.015,4.0176,4.02,4.0221,4.0239,4.0254,4.0272,4.0252,4.0275,4.0306,4.0323,4.0356,4.0384,4.0406,4.0409,4.0382,4.038,4.0391,4.0396,4.0398,4.0394,4.023,4.0375,4.0374,4.0373,4.0373,4.0372,4.0255,4.0286,4.0295,4.0325,4.0334,4.0349,4.0377,4.0374,4.04,4.0425,4.0412,4.0448,4.0457,4.0483,4.049,4.0517,4.0495,4.0513,4.0516,4.052,4.0525,4.0396,4.0521,4.0521,4.0521,4.052,4.052,0,4.0384,4.0388,4.0416,4.0437,4.046,4.0434,4.0449,4.047,4.0502,4.0513,4.0535,4.057,4.0597,4.0594,4.0618,4.064,4.0628,4.0647,4.0643,4.0644,4.0545,4.0531,4.0656,4.0656,4.0656,4.0656,4.0656,4.0656,4.0454,4.0504,4.0498,4.0552,4.0555,4.059,4.0601,4.0613,4.0622,4.0663,4.0685,4.0683,4.0688,4.0712,4.0735,4.0733,4.0742,4.0765,4.0758,4.0665,4.0651,4.0638,4.0625,4.0768,4.0768,4.0854,4.0855,4.0856]}]]